Wind_Speed
41 41 42 41 41 41 42 42 41 40 39 38 37 36 35 34 32 31 30 30 30 30 31 31 31 32 32 33 33 33 34 35 36 36 36 35 34 33 32 31 30 30
41 41 41 40 40 41 41 41 40 39 38 37 36 34 33 32 30 29 29 30 30 30 30 30 31 32 32 33 33 34 34 35 36 36 36 35 34 33 32 31 30 29
39 39 39 38 39 39 39 39 38 37 36 35 34 32 31 29 29 28 28 28 29 29 30 30 31 32 33 33 34 34 34 34 35 35 34 34 33 32 31 30 29 28
36 37 37 36 35 35 35 35 35 34 34 32 32 31 30 29 29 28 28 28 28 29 29 30 31 31 32 32 33 33 33 33 33 33 32 32 31 30 29 28 27 26
32 32 31 31 30 30 31 32 32 32 30 29 29 30 30 30 29 29 28 28 28 28 29 29 30 31 32 32 33 33 32 32 31 30 29 28 28 27 27 26 25 25
28 27 25 25 25 26 28 29 30 30 29 29 29 30 31 31 30 29 29 29 28 29 29 29 30 31 31 31 31 31 31 29 28 27 26 26 26 26 26 25 25 24
26 24 23 22 23 23 25 26 27 28 27 27 28 29 31 30 30 30 30 29 29 29 29 29 29 29 29 29 29 29 28 27 26 26 26 26 26 26 26 25 25 25
27 26 26 26 25 25 24 25 25 25 24 25 26 28 29 29 29 30 29 29 29 29 29 28 28 28 28 28 28 28 28 28 27 27 27 27 28 28 27 27 28 28
30 29 27 27 26 26 26 26 27 26 25 26 27 27 27 28 29 29 28 28 28 28 28 28 28 28 28 28 28 29 30 30 29 29 28 29 29 30 30 30 31 31
33 32 29 27 26 25 26 29 30 30 29 29 29 28 27 28 29 29 29 29 29 29 30 30 30 30 29 29 29 30 31 32 31 31 30 31 31 32 33 33 34 36
33 34 33 32 31 30 30 32 34 34 33 33 32 30 30 30 31 31 31 31 31 31 31 32 32 32 32 32 32 33 34 34 34 34 34 34 35 35 37 38 40 41
32 34 35 36 36 37 35 34 35 35 34 34 33 32 31 32 32 33 33 33 33 33 33 33 34 34 35 35 34 34 35 36 37 38 40 40 40 41 42 43 43 45
31 32 34 36 37 38 36 34 35 36 35 35 35 35 35 36 36 35 35 35 35 35 35 35 35 36 36 36 36 36 37 39 41 43 44 45 46 46 45 45 46 48
31 29 30 33 34 34 33 34 36 37 37 37 38 39 39 39 38 37 37 38 38 37 37 37 38 39 39 38 39 40 41 43 44 45 46 48 48 48 48 48 50 52
33 31 30 33 35 36 36 37 39 39 39 40 41 42 43 42 39 39 40 41 41 40 41 41 41 40 40 40 41 42 43 44 45 46 47 48 48 48 50 52 53 53
37 36 35 36 37 38 39 40 40 40 41 42 42 43 44 44 42 41 42 43 43 43 43 42 40 40 41 43 45 45 46 46 47 47 48 49 50 51 52 53 54 54
40 39 39 40 39 38 39 40 41 42 43 44 44 44 45 45 44 43 44 45 45 44 43 42 43 44 46 47 48 48 49 49 49 49 50 51 53 53 54 55 55 54
38 39 39 40 41 40 40 41 43 43 44 44 44 45 45 46 46 46 46 46 45 44 44 45 47 48 49 50 50 50 51 51 52 52 53 54 55 55 56 56 55 54
42 42 42 42 42 41 41 42 44 45 45 46 46 46 47 48 48 48 47 46 46 45 45 46 48 50 52 53 52 51 52 53 55 56 57 57 58 59 58 57 56 55
49 48 48 48 47 45 44 44 46 47 46 46 47 47 48 48 48 48 47 46 47 48 49 51 53 55 55 55 54 54 56 58 59 60 61 62 63 63 61 60 58 58
55 54 54 54 52 51 50 49 48 48 47 47 47 47 48 48 48 49 49 51 52 54 56 58 58 57 57 58 59 61 62 63 64 65 67 67 67 66 64 63 63 63
58 59 59 59 58 58 57 57 55 55 55 54 53 52 52 53 54 55 57 58 60 61 61 61 61 61 62 64 66 67 67 67 68 68 68 68 67 65 64 65 65 66
60 62 62 63 64 64 64 64 63 62 63 62 61 61 61 61 62 62 63 64 65 65 65 65 66 67 69 69 70 70 70 70 69 68 67 67 66 65 65 67 68 68
63 64 65 66 67 68 69 69 69 69 68 68 68 68 68 69 69 68 68 68 67 67 68 69 70 71 72 72 71 71 70 70 70 69 69 69 70 69 69 69 70 70
66 66 67 68 68 69 70 70 71 72 72 72 71 71 72 72 72 71 71 71 71 70 71 72 74 74 74 73 73 73 73 72 72 72 72 72 72 72 71 71 71 72
67 68 69 70 70 71 72 72 72 72 72 73 73 74 74 74 74 73 73 73 73 72 73 75 76 77 76 76 75 75 75 75 74 74 74 74 74 74 74 74 75 75
Wind_Direction
265 266 267 268 269 269 269 269 269 269 269 268 267 266 265 266 266 265 264 262 262 261 261 261 262 262 263 263 262 262 262 262 261 262 263 263 262 262 263 264 264 266
265 265 266 267 268 268 268 268 268 268 267 267 266 265 265 265 265 263 262 261 262 262 261 261 261 261 262 262 261 261 261 261 261 261 261 261 261 261 263 264 265 268
264 265 266 267 268 268 269 269 268 267 265 264 263 263 262 262 261 261 260 261 262 262 261 260 260 260 260 260 260 259 259 259 259 260 260 261 262 263 264 266 268 271
266 266 267 268 268 269 269 269 267 264 262 260 260 259 259 259 260 260 261 262 262 260 259 259 259 259 259 258 258 257 257 257 258 259 260 262 264 265 267 269 271 274
268 268 268 268 269 269 269 267 264 262 260 258 257 258 260 261 262 263 263 262 260 258 257 256 256 256 256 256 256 255 255 256 257 258 260 262 264 266 269 271 272 273
268 267 266 267 268 268 268 266 264 262 261 260 260 260 261 262 263 263 263 261 259 257 254 253 252 253 253 253 254 254 254 255 255 257 259 262 264 266 267 268 269 271
264 260 260 264 267 267 268 269 267 265 263 262 262 262 262 262 263 262 261 260 258 257 255 252 251 251 252 253 253 253 254 253 254 255 258 261 263 265 267 268 270 272
258 259 262 266 268 270 272 274 272 269 267 265 263 262 263 263 262 261 260 259 258 257 256 254 252 251 251 252 253 253 253 252 253 255 259 263 265 266 266 267 269 272
252 258 264 268 270 274 275 274 271 269 267 264 262 262 263 263 261 260 259 259 258 258 257 255 254 254 253 253 253 253 253 253 254 257 261 264 264 263 262 262 265 271
249 254 259 263 267 269 269 268 267 265 263 261 261 261 262 262 262 262 260 259 258 258 258 258 258 258 257 257 257 257 257 258 259 262 266 268 268 265 262 263 269 275
249 251 255 259 261 263 265 265 264 262 261 260 260 260 260 261 262 262 262 261 260 260 261 261 261 261 262 263 265 265 264 263 263 266 271 274 275 272 270 271 275 279
250 252 255 258 260 262 265 265 263 262 262 263 262 262 260 260 260 261 262 263 263 264 265 266 266 267 269 271 272 271 268 266 268 271 275 277 279 279 278 278 279 282
250 253 259 261 261 261 262 261 261 263 265 266 266 265 262 261 262 265 267 268 269 270 271 272 273 274 275 275 275 275 274 273 275 276 278 279 281 281 281 280 281 285
245 247 252 255 255 254 255 255 258 262 265 265 264 263 263 265 268 270 272 273 274 274 274 275 276 276 276 276 276 277 277 277 278 278 278 279 280 280 280 281 284 287
241 241 242 246 249 249 250 251 254 259 262 263 263 265 267 269 270 270 271 273 273 273 274 275 275 274 273 274 275 276 277 277 278 278 279 279 279 280 281 283 285 287
235 238 239 243 247 247 248 249 252 255 259 262 265 268 271 272 273 272 273 274 275 275 276 275 272 270 272 274 276 277 278 279 279 280 281 281 281 282 283 284 286 289
235 241 243 245 246 248 250 252 253 256 258 262 265 267 270 273 274 275 276 278 278 278 276 275 274 274 276 278 279 280 282 283 283 284 283 283 283 284 285 287 289 291
236 241 244 245 247 251 255 257 258 258 259 262 265 267 269 272 273 275 277 278 277 276 275 275 276 277 279 281 282 283 284 284 284 285 285 285 285 286 288 290 291 292
235 238 241 244 248 252 256 257 258 258 260 263 266 268 270 271 273 275 275 274 273 272 272 272 273 276 279 281 281 281 280 282 284 285 286 287 288 289 291 292 292 292
236 238 241 245 249 252 252 252 253 255 258 261 264 267 269 270 271 272 270 268 266 266 268 271 274 277 278 277 277 278 279 282 285 286 287 288 289 291 292 292 291 291
240 241 243 246 249 251 252 251 252 253 255 257 260 262 264 265 266 265 265 264 264 266 270 274 276 276 275 275 277 280 282 285 287 288 290 291 291 292 292 291 291 292
242 245 246 248 251 253 255 256 256 257 258 259 260 261 262 262 263 263 265 266 268 270 272 274 275 275 275 277 280 282 285 287 288 289 291 291 291 291 291 291 291 291
244 246 248 250 252 254 256 258 259 261 263 264 265 265 265 265 266 267 268 269 271 272 274 274 275 276 277 279 281 284 285 286 287 288 288 288 288 288 288 288 289 290
247 247 249 250 252 254 256 258 260 262 264 266 267 268 268 269 269 270 271 272 273 274 275 276 276 277 278 280 282 283 284 284 285 285 285 285 286 286 287 287 288 289
249 250 251 252 254 256 258 260 261 263 265 266 268 269 270 271 271 272 273 274 275 276 277 277 277 277 279 280 281 282 282 283 283 284 284 284 285 286 286 286 286 286
251 251 252 253 254 256 258 260 262 264 265 267 268 269 270 271 272 273 274 274 275 276 276 276 277 279 280 280 281 281 282 282 282 282 283 283 283 284 284 284 284 285
Height
10637 10638 10638 10640 10641 10641 10641 10642 10642 10643 10643 10644 10645 10645 10646 10647 10648 10649 10650 10651 10652 10653 10654 10655 10655 10655 10656 10657 10658 10659 10660 10660 10660 10660 10660 10661 10661 10661 10661 10661 10661 10661
10631 10632 10633 10634 10635 10635 10636 10637 10638 10638 10639 10639 10639 10640 10641 10642 10643 10644 10645 10646 10647 10649 10650 10650 10651 10651 10652 10653 10653 10654 10655 10656 10656 10656 10656 10656 10657 10657 10657 10657 10657 10657
10625 10626 10627 10629 10630 10630 10631 10632 10633 10633 10634 10634 10634 10635 10636 10638 10639 10640 10641 10642 10643 10644 10645 10646 10646 10647 10648 10648 10649 10649 10650 10651 10651 10651 10651 10651 10652 10653 10653 10654 10653 10653
10621 10621 10622 10624 10625 10626 10626 10627 10627 10628 10629 10630 10630 10631 10632 10633 10635 10636 10637 10639 10640 10640 10641 10641 10642 10643 10643 10644 10644 10645 10645 10646 10646 10647 10647 10647 10647 10648 10649 10649 10649 10649
10617 10617 10618 10619 10620 10621 10621 10622 10622 10623 10624 10625 10626 10627 10627 10629 10630 10632 10633 10634 10635 10636 10637 10637 10638 10638 10639 10639 10639 10640 10640 10641 10642 10642 10642 10642 10643 10643 10644 10644 10645 10645
10613 10613 10614 10615 10616 10617 10617 10618 10618 10619 10620 10621 10622 10623 10623 10624 10626 10627 10628 10629 10631 10632 10632 10633 10633 10634 10634 10635 10635 10635 10636 10637 10637 10638 10638 10638 10638 10639 10639 10640 10640 10641
10610 10610 10611 10612 10612 10613 10613 10613 10614 10615 10616 10618 10618 10618 10619 10620 10621 10622 10623 10625 10626 10627 10628 10629 10629 10630 10630 10631 10631 10632 10632 10633 10633 10634 10634 10634 10634 10634 10635 10635 10636 10636
10607 10607 10608 10609 10609 10609 10609 10609 10609 10611 10612 10613 10614 10615 10615 10616 10617 10618 10619 10621 10622 10623 10624 10625 10626 10626 10627 10627 10627 10628 10628 10629 10629 10630 10630 10630 10630 10630 10631 10631 10632 10632
10604 10605 10605 10605 10606 10606 10605 10605 10605 10606 10608 10609 10610 10611 10612 10613 10613 10614 10616 10617 10619 10620 10620 10621 10622 10623 10623 10623 10624 10624 10624 10624 10625 10625 10626 10626 10626 10626 10626 10627 10627 10627
10601 10602 10602 10602 10602 10603 10602 10601 10601 10602 10604 10605 10606 10608 10610 10610 10610 10611 10612 10614 10615 10616 10617 10618 10618 10619 10619 10619 10619 10619 10619 10620 10620 10621 10621 10622 10622 10621 10621 10621 10622 10622
10598 10599 10599 10599 10599 10599 10599 10598 10597 10598 10600 10600 10602 10604 10606 10606 10607 10607 10608 10610 10611 10612 10613 10613 10614 10614 10615 10615 10615 10615 10615 10615 10616 10616 10616 10616 10616 10616 10616 10616 10616 10615
10596 10596 10596 10596 10596 10595 10594 10593 10592 10593 10594 10595 10597 10599 10601 10602 10603 10603 10605 10606 10606 10607 10608 10609 10609 10610 10610 10611 10611 10611 10611 10611 10611 10611 10610 10611 10611 10611 10611 10610 10610 10609
10595 10595 10594 10592 10590 10589 10589 10589 10587 10588 10590 10591 10591 10593 10595 10596 10598 10599 10600 10601 10601 10602 10602 10603 10604 10604 10605 10605 10606 10606 10606 10606 10606 10605 10605 10605 10605 10605 10605 10604 10604 10603
10592 10593 10591 10588 10585 10585 10585 10585 10583 10583 10585 10585 10586 10587 10588 10590 10593 10594 10594 10594 10595 10596 10596 10597 10598 10598 10599 10599 10600 10600 10600 10600 10600 10600 10599 10599 10598 10598 10598 10598 10597 10596
10586 10587 10586 10583 10581 10582 10582 10581 10580 10579 10579 10579 10580 10581 10582 10584 10587 10588 10588 10589 10589 10590 10591 10592 10592 10592 10593 10593 10593 10594 10594 10594 10594 10594 10593 10592 10592 10591 10591 10590 10590 10589
10580 10580 10579 10577 10577 10577 10577 10577 10576 10575 10574 10574 10575 10576 10576 10577 10579 10581 10582 10582 10583 10584 10584 10585 10586 10586 10587 10587 10587 10587 10587 10587 10587 10586 10586 10585 10585 10585 10584 10583 10582 10581
10575 10574 10574 10572 10572 10573 10573 10572 10571 10571 10571 10571 10572 10572 10571 10572 10572 10574 10574 10575 10576 10576 10577 10577 10578 10579 10579 10578 10578 10578 10578 10578 10578 10578 10579 10579 10578 10577 10576 10575 10574 10573
10569 10568 10568 10568 10568 10569 10569 10567 10566 10567 10567 10567 10568 10568 10568 10567 10567 10568 10569 10569 10569 10569 10569 10570 10570 10570 10570 10569 10569 10570 10570 10570 10570 10571 10571 10571 10570 10569 10568 10567 10566 10565
10563 10562 10562 10563 10564 10565 10565 10563 10562 10562 10562 10563 10563 10563 10563 10563 10562 10562 10563 10563 10563 10563 10563 10563 10563 10563 10562 10563 10563 10564 10564 10563 10563 10563 10563 10562 10561 10561 10560 10559 10558 10557
10557 10557 10558 10558 10559 10560 10559 10558 10558 10557 10558 10558 10558 10558 10558 10557 10557 10557 10557 10557 10557 10557 10557 10558 10558 10558 10557 10557 10557 10557 10557 10557 10556 10555 10554 10554 10554 10553 10552 10552 10551 10550
10550 10551 10551 10552 10553 10553 10552 10553 10553 10553 10554 10554 10554 10554 10554 10553 10553 10553 10553 10553 10552 10552 10553 10552 10552 10552 10551 10550 10549 10549 10549 10548 10548 10546 10546 10545 10545 10545 10544 10543 10543 10542
10543 10544 10545 10546 10546 10546 10545 10546 10548 10548 10548 10549 10550 10550 10549 10549 10548 10548 10547 10547 10546 10546 10546 10545 10545 10544 10543 10542 10541 10541 10541 10540 10539 10538 10536 10535 10535 10535 10534 10534 10533 10533
10537 10538 10538 10539 10539 10539 10538 10539 10541 10541 10541 10542 10543 10542 10542 10541 10541 10540 10539 10539 10538 10538 10538 10537 10537 10535 10534 10534 10534 10533 10533 10532 10531 10530 10529 10527 10527 10527 10526 10525 10524 10523
10530 10531 10532 10532 10532 10532 10531 10532 10533 10533 10533 10533 10533 10533 10532 10532 10531 10531 10531 10531 10531 10530 10529 10528 10527 10526 10526 10527 10527 10526 10525 10524 10523 10522 10521 10519 10519 10519 10519 10517 10515 10514
10524 10525 10525 10525 10525 10525 10524 10524 10524 10525 10525 10525 10525 10524 10523 10522 10522 10522 10522 10522 10523 10523 10521 10518 10516 10516 10518 10519 10519 10518 10517 10516 10515 10514 10512 10511 10510 10510 10510 10509 10507 10506
10516 10517 10517 10517 10518 10518 10518 10517 10517 10517 10517 10516 10516 10515 10514 10513 10513 10513 10513 10514 10515 10514 10511 10507 10505 10506 10508 10509 10509 10508 10508 10507 10506 10505 10503 10502 10502 10501 10500 10500 10499 10498